Meridian, MS

7:55 PM CST on February 25, 2017 (GMT -0600)
Meridian Naval Air Station

Weather History for KNMM - April, 2013

Change the Weather History Date:

Thursday, April 11, 2013

  Actual Average Record
Temperature  
Mean Temperature 66 °F -  
Max Temperature 79 °F 72 °F 87 °F (2001)
Min Temperature 52 °F 50 °F 41 °F (1998)
Cooling Degree Days 2    
Growing Degree Days 16 (Base 50)    
Moisture  
Dew Point 61 °F    
Average Humidity 87    
Maximum Humidity 94    
Minimum Humidity 65    
Precipitation  
Precipitation 0.88 in - - ()
Sea Level Pressure  
Sea Level Pressure 29.75 in    
Wind  
Wind Speed 8 mph (SSE)    
Max Wind Speed 26 mph    
Max Gust Speed 39 mph    
Visibility 8 miles    
Events Rain , Thunderstorm    
Averages and records for this station are not official NWS values.
T = Trace of Precipitation, MM = Missing Value Source: NWS Daily Summary

Daily Weather History Graph

Daily Weather History Graph

Search for Another Location

Airport or City:

Trip Planner

Search our weather history database for the weather conditions in past years. The results will help you decide how hot, cold, wet, or windy it might be!

Date:

Astronomy

Apr. 11, 2013 Rise Set
Actual Time 6:29 AM CDT 7:21 PM CDT
Civil Twilight 6:04 AM CDT 7:46 PM CDT
Nautical Twilight 5:34 AM CDT 8:16 PM CDT
Astronomical Twilight 5:04 AM CDT 8:46 PM CDT
Moon 7:05 AM CDT (4/11) 8:49 PM CDT (4/11)
Length of Visible Light 13h 42m
Length of Day
12h 52m
New Moon, 2% of the Moon is Illuminated
Apr 11
New Moon
Apr 18
First Quarter
Apr 25
Full
May 2
Last Quarter
May 9
New

Hourly Weather History & Observations

Time (CDT) Temp. Dew Point Humidity Pressure Visibility Wind Dir Wind Speed Gust Speed Precip Events Conditions
12:56 AM 70.0 °F 63.0 °F 78% 29.88 in 10.0 mi South 6.9 mph - N/A   Partly Cloudy
1:56 AM 69.1 °F 63.0 °F 81% 29.86 in 10.0 mi SSE 8.1 mph - N/A   Clear
2:56 AM 68.0 °F 63.0 °F 84% 29.84 in 10.0 mi SSE 5.8 mph - N/A   Clear
3:29 AM 68.0 °F 64.4 °F 88% 29.81 in 10.0 mi SE 6.9 mph - N/A   Mostly Cloudy
3:53 AM 68.0 °F 64.4 °F 88% 29.81 in 10.0 mi SSE 4.6 mph - N/A   Overcast
3:56 AM 68.0 °F 64.0 °F 87% 29.83 in 10.0 mi SSE 4.6 mph - N/A   Overcast
4:03 AM 68.0 °F 64.4 °F 88% 29.81 in 10.0 mi SSE 4.6 mph - N/A   Overcast
4:39 AM 66.2 °F 64.4 °F 94% 29.80 in 10.0 mi SE 4.6 mph - N/A   Overcast
4:56 AM 66.9 °F 63.0 °F 87% 29.81 in 10.0 mi SE 5.8 mph - N/A   Mostly Cloudy
5:56 AM 66.9 °F 64.0 °F 90% 29.80 in 10.0 mi SE 9.2 mph - N/A   Overcast
6:29 AM 66.2 °F 64.4 °F 94% 29.78 in 10.0 mi SE 9.2 mph - N/A   Scattered Clouds
6:56 AM 68.0 °F 64.9 °F 90% 29.81 in 9.0 mi SE 8.1 mph - N/A   Overcast
7:04 AM 68.0 °F 64.4 °F 88% 29.79 in 8.0 mi SSE 5.8 mph - N/A   Overcast
7:56 AM 69.1 °F 66.0 °F 90% 29.81 in 10.0 mi SSE 9.2 mph - N/A   Overcast
8:56 AM 70.0 °F 66.0 °F 87% 29.80 in 6.0 mi SSE 8.1 mph - 0.00 in Rain Light Rain
9:43 AM 71.6 °F 66.2 °F 83% 29.76 in 10.0 mi SSE 9.2 mph - 0.00 in   Overcast
9:56 AM 72.0 °F 66.9 °F 84% 29.78 in 10.0 mi SSE 6.9 mph 17.3 mph 0.00 in   Overcast
10:10 AM 73.4 °F 66.2 °F 78% 29.76 in 10.0 mi SE 8.1 mph - N/A   Overcast
10:18 AM 73.4 °F 66.2 °F 78% 29.75 in 10.0 mi SSE 8.1 mph - N/A   Overcast
10:44 AM 73.4 °F 66.2 °F 78% 29.73 in 10.0 mi SSE 11.5 mph 17.3 mph N/A   Overcast
10:56 AM 73.0 °F 66.9 °F 81% 29.75 in 10.0 mi SSE 9.2 mph - N/A   Overcast
11:56 AM 77.0 °F 66.9 °F 71% 29.71 in 10.0 mi SSE 9.2 mph 20.7 mph N/A   Overcast
12:56 PM 79.0 °F 68.0 °F 69% 29.65 in 10.0 mi North - - 0.00 in   Overcast
1:03 PM 78.8 °F 66.2 °F 65% 29.63 in 10.0 mi South 12.7 mph 20.7 mph N/A   Mostly Cloudy
1:43 PM 66.2 °F 60.8 °F 83% 29.68 in 10.0 mi WNW 25.3 mph 28.8 mph 0.00 in Rain , Thunderstorm Light Thunderstorms and Rain
1:58 PM 62.6 °F 57.2 °F 82% 29.70 in 2.0 mi WNW 26.5 mph 39.1 mph 0.02 in Rain , Thunderstorm Light Thunderstorms and Rain
2:32 PM 60.8 °F 57.2 °F 88% 29.71 in 2.0 mi NW 16.1 mph 19.6 mph 0.34 in Rain , Thunderstorm Heavy Thunderstorms and Rain
2:42 PM 59.0 °F 57.2 °F 94% 29.67 in 1.2 mi North 8.1 mph - 0.44 in Rain , Thunderstorm Heavy Thunderstorms and Rain
2:49 PM 59.0 °F 57.2 °F 94% 29.68 in 3.0 mi NNE 11.5 mph 18.4 mph 0.46 in Rain , Thunderstorm Light Thunderstorms and Rain
2:56 PM 59.0 °F 57.0 °F 93% 29.70 in 4.0 mi North 9.2 mph 18.4 mph 0.47 in Rain , Thunderstorm Thunderstorms and Rain
3:21 PM 59.0 °F 57.2 °F 94% 29.69 in 3.0 mi NW 8.1 mph - 0.10 in Rain , Thunderstorm Thunderstorms and Rain
3:42 PM 59.0 °F 57.2 °F 94% 29.71 in 2.0 mi WNW 9.2 mph - 0.20 in Rain , Thunderstorm Heavy Thunderstorms and Rain
3:56 PM 59.0 °F 57.0 °F 93% 29.74 in 2.0 mi WNW 6.9 mph - 0.27 in Rain Heavy Rain
4:08 PM 59.0 °F 57.2 °F 94% 29.70 in 3.0 mi NNW 5.8 mph - 0.04 in Rain Rain
4:56 PM 59.0 °F 57.0 °F 93% 29.69 in 8.0 mi East 6.9 mph - 0.12 in Rain Light Rain
5:31 PM 59.0 °F 57.2 °F 94% 29.64 in 10.0 mi East 3.5 mph - 0.02 in   Overcast
5:56 PM 59.0 °F 57.0 °F 93% 29.70 in 10.0 mi NW 3.5 mph - 0.02 in   Overcast
6:56 PM 59.0 °F 55.9 °F 90% 29.71 in 10.0 mi NW 9.2 mph - N/A   Overcast
7:15 PM 59.0 °F 55.4 °F 88% 29.70 in 3.0 mi NW 16.1 mph - N/A   Overcast
7:56 PM 57.0 °F 55.0 °F 93% 29.73 in 3.0 mi NW 11.5 mph - N/A   Overcast
8:56 PM 55.9 °F 53.1 °F 90% 29.77 in 3.0 mi WNW 10.4 mph - N/A   Overcast
9:56 PM 55.0 °F 52.0 °F 89% 29.80 in 3.0 mi NW 13.8 mph - N/A   Overcast
10:56 PM 54.0 °F 50.0 °F 86% 29.83 in 10.0 mi WNW 15.0 mph - N/A   Overcast
11:56 PM 52.0 °F 48.9 °F 89% 29.86 in 10.0 mi NW 13.8 mph - N/A   Overcast